| time (UTC) | temp F | wind direction | speed knots | gust knots | rain 1hr in | rain 24hr in | rain mn in | humidity % | barometer mb |
| 20260505040604 | 53 | 48 | 1.7 | 7.8 | 0.00 | 0.00 | 5.37 | 35 | 1014.7 |
| 20260505034503 | 54 | 73 | 2.6 | 7.8 | 0.00 | 0.00 | 5.37 | 29 | 1014.6 |
| 20260505033503 | 54 | 229 | 3.5 | 8.7 | 0.00 | 0.00 | 5.37 | 28 | 1014.4 |
| 20260505032504 | 54 | 360 | 0.0 | 7.8 | 0.00 | 0.00 | 5.37 | 28 | 1014.4 |
| 20260505031502 | 54 | 223 | 3.5 | 7.8 | 0.00 | 0.00 | 5.37 | 30 | 1014.3 |
| 20260505030503 | 54 | 198 | 5.2 | 7.0 | 0.00 | 0.00 | 5.37 | 30 | 1014.3 |
| 20260505024403 | 54 | 202 | 0.0 | 7.8 | 0.00 | 0.00 | 5.37 | 32 | 1014.0 |
| 20260505023404 | 55 | 360 | 0.0 | 8.7 | 0.00 | 0.00 | 5.37 | 34 | 1014.0 |
| 20260505022403 | 56 | 264 | 0.9 | 7.8 | 0.00 | 0.00 | 5.37 | 31 | 1014.0 |
| 20260505021403 | 56 | 152 | 0.0 | 7.8 | 0.00 | 0.00 | 5.37 | 28 | 1013.9 |
| 20260505020404 | 57 | 189 | 2.6 | 7.8 | 0.00 | 0.00 | 5.37 | 26 | 1014.0 |
| 20260505015403 | 57 | 116 | 2.6 | 8.7 | 0.00 | 0.00 | 5.37 | 26 | 1013.9 |
| 20260505014403 | 58 | 200 | 3.5 | 8.7 | 0.00 | 0.00 | 5.37 | 26 | 1013.9 |
| 20260505013404 | 58 | 256 | 4.3 | 8.7 | 0.00 | 0.00 | 5.37 | 26 | 1013.8 |
| 20260505012402 | 59 | 202 | 0.9 | 4.3 | 0.00 | 0.00 | 5.37 | 25 | 1013.6 |
| 20260505011403 | 59 | 246 | 2.6 | 4.3 | 0.00 | 0.00 | 5.37 | 26 | 1013.5 |
| 20260505005304 | 60 | 360 | 0.0 | 7.8 | 0.00 | 0.00 | 5.37 | 25 | 1013.2 |
| 20260505004304 | 60 | 71 | 0.9 | 7.8 | 0.00 | 0.00 | 5.37 | 25 | 1013.4 |
| 20260505003304 | 60 | 322 | 2.6 | 6.1 | 0.00 | 0.00 | 5.37 | 23 | 1013.4 |
| 20260505002304 | 61 | 343 | 0.0 | 1.7 | 0.00 | 0.00 | 5.37 | 24 | 1013.5 |
| 20260505000204 | 61 | 267 | 3.5 | 8.7 | 0.00 | 0.00 | 5.37 | 24 | 1013.4 |
| 20260504235204 | 62 | 261 | 1.7 | 7.8 | 0.00 | 0.00 | 5.37 | 24 | 1013.4 |
| 20260504234202 | 62 | 360 | 0.9 | 8.7 | 0.00 | 0.00 | 5.37 | 26 | 1013.6 |
| 20260504233203 | 62 | 360 | 0.9 | 7.8 | 0.00 | 0.00 | 5.37 | 26 | 1013.5 |
| 20260504232203 | 61 | 161 | 0.9 | 6.1 | 0.00 | 0.00 | 5.37 | 26 | 1013.4 |
| 20260504231202 | 61 | 288 | 2.6 | 8.7 | 0.00 | 0.00 | 5.37 | 24 | 1013.5 |
| 20260504230203 | 61 | 301 | 2.6 | 7.8 | 0.00 | 0.00 | 5.37 | 26 | 1013.4 |
| 20260504225204 | 61 | 360 | 0.9 | 3.5 | 0.00 | 0.00 | 5.37 | 25 | 1013.4 |
| 20260504224202 | 62 | 360 | 0.0 | 8.7 | 0.00 | 0.00 | 5.37 | 27 | 1013.4 |
| 20260504223203 | 62 | 7 | 0.0 | 6.1 | 0.00 | 0.00 | 5.37 | 27 | 1013.4 |
| 20260504222203 | 61 | 319 | 1.7 | 8.7 | 0.00 | 0.00 | 5.37 | 27 | 1013.6 |
| 20260504221204 | 61 | 329 | 0.9 | 7.8 | 0.00 | 0.00 | 5.37 | 26 | 1013.5 |
| 20260504220204 | 61 | 287 | 0.0 | 0.0 | 0.00 | 0.00 | 5.37 | 27 | 1013.6 |
| 20260504215203 | 61 | 119 | 0.9 | 5.2 | 0.00 | 0.00 | 5.37 | 28 | 1013.8 |
| 20260504213104 | 61 | 42 | 2.6 | 3.5 | 0.00 | 0.00 | 5.37 | 30 | 1013.9 |
| 20260504212104 | 60 | 349 | 0.0 | 2.6 | 0.00 | 0.00 | 5.37 | 33 | 1013.9 |
| 20260504211103 | 60 | 16 | 2.6 | 5.2 | 0.00 | 0.00 | 5.37 | 35 | 1014.2 |
| 20260504205104 | 60 | 326 | 0.0 | 3.5 | 0.00 | 0.00 | 5.37 | 39 | 1014.4 |
| 20260504204103 | 59 | 343 | 3.5 | 7.8 | 0.00 | 0.00 | 5.37 | 41 | 1014.7 |
| 20260504203103 | 59 | 0 | 1.7 | 5.2 | 0.00 | 0.00 | 5.37 | 42 | 1014.7 |
| 20260504202104 | 59 | 344 | 0.9 | 7.0 | 0.00 | 0.00 | 5.37 | 41 | 1014.8 |
| 20260504201102 | 59 | 350 | 2.6 | 2.6 | 0.00 | 0.00 | 5.37 | 42 | 1014.8 |
| 20260504192903 | 57 | 343 | 3.5 | 7.8 | 0.00 | 0.00 | 5.37 | 47 | 1015.1 |
| 20260504191904 | 58 | 0 | 2.6 | 10.4 | 0.00 | 0.00 | 5.37 | 46 | 1015.2 |
| 20260504190904 | 58 | 350 | 3.5 | 5.2 | 0.00 | 0.00 | 5.37 | 46 | 1015.2 |
| 20260504185903 | 61 | 11 | 3.5 | 7.0 | 0.00 | 0.00 | 5.37 | 40 | 1015.4 |
| 20260504184903 | 61 | 304 | 1.7 | 8.7 | 0.00 | 0.00 | 5.37 | 32 | 1015.2 |
| 20260504183904 | 61 | 264 | 2.6 | 8.7 | 0.00 | 0.00 | 5.37 | 33 | 1015.6 |
| 20260504181804 | 60 | 21 | 0.0 | 7.0 | 0.00 | 0.00 | 5.37 | 37 | 1016.0 |
| 20260504174604 | 58 | 328 | 2.6 | 8.7 | 0.00 | 0.00 | 5.37 | 43 | 1016.7 |
| 20260504173603 | 57 | 294 | 2.6 | 11.3 | 0.00 | 0.00 | 5.37 | 48 | 1017.0 |
| 20260504172604 | 56 | 127 | 2.6 | 7.0 | 0.00 | 0.00 | 5.37 | 49 | 1017.0 |
| 20260504171604 | 57 | 7 | 3.5 | 8.7 | 0.00 | 0.00 | 5.37 | 45 | 1016.6 |
| 20260504160403 | 53 | 336 | 0.9 | 8.7 | 0.00 | 0.00 | 5.37 | 59 | 1017.5 |
| 20260504150304 | 49 | 123 | 0.0 | 0.0 | 0.00 | 0.00 | 5.37 | 78 | 1017.9 |
| 20260504141302 | 47 | 360 | 1.7 | 8.7 | 0.00 | 0.00 | 5.37 | 82 | 1018.0 |
| 20260504140303 | 46 | 196 | 0.0 | 0.0 | 0.00 | 0.00 | 5.37 | 83 | 1018.2 |
| 20260504130304 | 43 | 69 | 3.5 | 4.3 | 0.00 | 0.00 | 5.37 | 84 | 1018.3 |
| 20260504120104 | 44 | 216 | 2.6 | 7.8 | 0.00 | 0.00 | 5.37 | 83 | 1018.7 |
| 20260504110104 | 44 | 1 | 0.0 | 0.9 | 0.00 | 0.00 | 5.37 | 82 | 1019.9 |
| 20260504080603 | 46 | 360 | 0.0 | 6.1 | 0.00 | 0.00 | 3.73 | 74 | 1020.0 |
| 20260504050503 | 50 | 253 | 1.7 | 11.3 | 0.00 | 0.00 | 0.05 | 40 | 1018.8 |
| 20260504044403 | 49 | 335 | 0.9 | 4.3 | 0.00 | 0.00 | 0.05 | 41 | 1018.8 |
| 20260504041203 | 49 | 224 | 1.7 | 8.7 | 0.00 | 0.00 | 0.05 | 41 | 1019.1 |